Flag for Germany Weather past 2 weeks in Flensburg, Schleswig-Holstein, Germany

41 °F

Passing clouds.

Feels Like: 35 °F
Forecast: 39 / 45 °F
Wind: 10 mph from Northwest

Location: Soenderborg Lufthavn

Current Time: Nov 26, 2015 at 4:57:56 AM

Latest Report: Nov 26, 2015 at 3:50 AM

Visibility: N/A

Pressure: 29.71 "Hg

Humidity: 87%

Dew point: 37 °F

Location of FlensburgLocation

Historic Weather in Flensburg — Graph


Flensburg temperature yesterday

Maximum temperature yesterday: 45 °F (at 2:50 PM)
Minimum temperature yesterday: 37 °F (at 12:20 AM)
Average temperature yesterday: 41 °F

Past Weeks' High & Low Weather Summary

High57 °F (Nov 11, 6:20 AM)100% (Nov 15, 3:20 AM)30.15 "Hg (Nov 15, 3:20 AM)
Low34 °F (Nov 22, 6:50 AM)56% (Nov 23, 2:20 PM)29.15 "Hg (Nov 18, 3:20 AM)
Average46 °F87%29.66 "Hg
* Reported Nov 11 6:20 AM — Nov 26 3:20 AM, Flensburg, Weather by CustomWeather, © 2015

Note: Actual official high and low records may vary slightly from our data, if they occured in-between our weather recording intervals... More about our weather records


Flensburg weather history for previous 24 hours

Time TempWeatherWind HumidityBarometerVisibility
3:20 AM
Thu, Nov 26
41 °FQuite cool.9 mph81%29.68 "HgN/A
2:50 AM41 °FQuite cool.9 mph87%29.68 "HgN/A
2:20 AM41 °FQuite cool.10 mph87%29.68 "HgN/A
1:20 AM41 °FQuite cool.10 mph87%29.65 "HgN/A
12:50 AM43 °FPassing clouds.8 mph87%29.65 "HgN/A
12:20 AM43 °FPassing clouds.8 mph87%29.65 "HgN/A
11:50 PM
Wed, Nov 25
43 °FPassing clouds.7 mph87%29.62 "HgN/A
11:20 PM43 °FLight rain. Passing clouds.8 mph87%29.62 "HgN/A
10:50 PM41 °FPassing clouds.8 mph87%29.62 "HgN/A
10:20 PM41 °FPassing clouds.8 mph87%29.62 "HgN/A
9:50 PM39 °FChilly.8 mph93%29.59 "HgN/A
9:20 PM41 °FPassing clouds.9 mph87%29.59 "HgN/A
8:50 PM41 °FPassing clouds.7 mph87%29.59 "HgN/A
8:20 PM39 °FChilly.7 mph93%29.59 "HgN/A
7:50 PM39 °FPassing clouds.7 mph93%29.56 "HgN/A
7:20 PM41 °FPassing clouds.6 mph93%29.56 "HgN/A
6:50 PM41 °FPassing clouds.7 mph93%29.56 "HgN/A
6:20 PM43 °FPassing clouds.7 mph87%29.56 "HgN/A
5:50 PM43 °FPassing clouds.6 mph87%29.53 "HgN/A
5:20 PM43 °FPassing clouds.6 mph93%29.53 "HgN/A
4:50 PM43 °FPartly cloudy.5 mph93%29.53 "HgN/A
4:20 PM43 °FPartly cloudy.5 mph93%29.53 "HgN/A
3:52 PM43 °FScattered clouds.3 mph93%29.53 "HgN/A
3:20 PM45 °FScattered clouds.5 mph93%29.53 "Hg6 mi
2:50 PM45 °FScattered clouds.3 mph93%29.50 "Hg4 mi
2:20 PM43 °FScattered clouds.5 mph100%29.50 "Hg4 mi
1:50 PM43 °FScattered clouds.5 mph100%29.50 "Hg4 mi
1:20 PM43 °FScattered clouds.6 mph100%29.50 "Hg4 mi
12:50 PM43 °FPartly sunny.8 mph100%29.50 "Hg3 mi
12:20 PM43 °FFog.8 mph93%29.50 "Hg2 mi
11:50 AM43 °FFog.9 mph93%29.53 "Hg2 mi
11:20 AM43 °FFog.8 mph93%29.53 "Hg2 mi
10:53 AM41 °FFog.10 mph100%29.53 "Hg2 mi
10:20 AM41 °FFog.9 mph100%29.53 "Hg2 mi
9:50 AM41 °FFog.10 mph100%29.53 "Hg2 mi
9:20 AM41 °FDrizzle. Fog.9 mph93%29.53 "Hg2 mi
8:50 AM41 °FDrizzle. Fog.9 mph93%29.53 "Hg1 mi
8:24 AM39 °FDrizzle. Fog.12 mph100%29.53 "Hg1 mi
7:50 AM39 °FDrizzle. Fog.13 mph100%29.53 "Hg1 mi
7:20 AM39 °FDrizzle. Fog.10 mph100%29.50 "Hg1 mi
6:59 AM39 °FDrizzle. Fog.12 mph100%29.50 "Hg1 mi
6:20 AM39 °FDrizzle. Fog.12 mph100%29.53 "Hg1 mi
5:50 AM39 °FDrizzle. Fog.14 mph100%29.53 "Hg1 mi
5:20 AM39 °FFog.12 mph100%29.53 "Hg1 mi
4:20 AM39 °FFog.10 mph100%29.53 "Hg1 mi
Weather by CustomWeather, © 2015

See weather overviewHow to use our weather pages